Time,TemperatureF,DewpointF,PressureIn,WindDirection,WindDirectionDegrees,WindSpeedMPH,WindSpeedGustMPH,Humidity,HourlyPrecipIn,Conditions,Clouds,dailyrainin,SoftwareType,DateUTC
2013-11-20 00:01:00,35.8,24.8,30.28,WSW,249,0.0,1.0,64,0.00,,,0.00,meteohub,2013-11-20 05:01:00,
2013-11-20 00:02:00,35.8,24.8,30.28,NNE,12,1.0,1.0,64,0.00,,,0.00,meteohub,2013-11-20 05:02:00,
2013-11-20 00:07:00,36.0,25.0,30.28,NE,36,2.0,5.0,64,0.00,,,0.00,meteohub,2013-11-20 05:07:00,
2013-11-20 00:12:00,36.3,25.0,30.28,NNW,343,0.0,5.0,63,0.00,,,0.00,meteohub,2013-11-20 05:12:00,
2013-11-20 00:17:00,36.3,24.6,30.29,North,3,0.0,5.0,62,0.00,,,0.00,meteohub,2013-11-20 05:17:00,
2013-11-20 00:22:00,36.3,24.6,30.28,NNE,27,0.0,4.0,62,0.00,,,0.00,meteohub,2013-11-20 05:22:00,
2013-11-20 00:27:00,36.1,24.8,30.28,North,352,1.0,3.0,63,0.00,,,0.00,meteohub,2013-11-20 05:27:00,
2013-11-20 00:32:00,36.1,24.1,30.29,East,86,1.0,4.0,61,0.00,,,0.00,meteohub,2013-11-20 05:32:00,
2013-11-20 00:37:00,36.1,24.4,30.28,NNE,33,2.0,4.0,62,0.00,,,0.00,meteohub,2013-11-20 05:37:00,
2013-11-20 00:42:00,36.1,24.4,30.28,North,353,1.0,4.0,62,0.00,,,0.00,meteohub,2013-11-20 05:42:00,
2013-11-20 00:47:00,36.0,24.6,30.29,ENE,72,2.0,4.0,63,0.00,,,0.00,meteohub,2013-11-20 05:47:00,
2013-11-20 00:52:00,36.0,24.6,30.29,NE,42,0.0,7.0,63,0.00,,,0.00,meteohub,2013-11-20 05:52:00,
2013-11-20 00:57:00,36.1,24.4,30.29,NE,36,0.0,7.0,62,0.00,,,0.00,meteohub,2013-11-20 05:57:00,
2013-11-20 01:02:00,36.1,24.4,30.29,NE,43,0.0,7.0,62,0.00,,,0.00,meteohub,2013-11-20 06:02:00,
2013-11-20 01:07:00,36.0,24.6,30.30,NE,49,0.0,5.0,63,0.00,,,0.00,meteohub,2013-11-20 06:07:00,
2013-11-20 01:12:00,36.0,24.6,30.30,North,351,0.0,3.0,63,0.00,,,0.00,meteohub,2013-11-20 06:12:00,
2013-11-20 01:17:00,36.0,24.6,30.30,NE,49,3.0,4.0,63,0.00,,,0.00,meteohub,2013-11-20 06:17:00,
2013-11-20 01:22:00,36.1,24.8,30.30,NNE,31,0.0,4.0,63,0.00,,,0.00,meteohub,2013-11-20 06:22:00,
2013-11-20 01:27:00,36.0,24.6,30.30,NE,43,2.0,4.0,63,0.00,,,0.00,meteohub,2013-11-20 06:27:00,
2013-11-20 01:32:00,36.0,24.3,30.30,NE,51,1.0,4.0,62,0.00,,,0.00,meteohub,2013-11-20 06:32:00,
2013-11-20 01:37:00,36.0,24.6,30.30,NNE,12,0.0,3.0,63,0.00,,,0.00,meteohub,2013-11-20 06:37:00,
2013-11-20 01:42:00,35.8,24.4,30.30,East,84,2.0,3.0,63,0.00,,,0.00,meteohub,2013-11-20 06:42:00,
2013-11-20 01:47:00,35.4,24.4,30.30,NNE,25,0.0,4.0,64,0.00,,,0.00,meteohub,2013-11-20 06:47:00,
2013-11-20 01:52:00,35.4,24.8,30.30,NE,44,2.0,4.0,65,0.00,,,0.00,meteohub,2013-11-20 06:52:00,
2013-11-20 01:57:00,35.4,24.8,30.30,ENE,65,2.0,4.0,65,0.00,,,0.00,meteohub,2013-11-20 06:57:00,
2013-11-20 02:02:00,35.4,24.8,30.30,NNE,12,0.0,5.0,65,0.00,,,0.00,meteohub,2013-11-20 07:02:00,
2013-11-20 02:07:00,35.2,24.6,30.30,NE,36,0.0,5.0,65,0.00,,,0.00,meteohub,2013-11-20 07:07:00,
2013-11-20 02:12:00,35.2,24.6,30.30,ESE,117,0.0,4.0,65,0.00,,,0.00,meteohub,2013-11-20 07:12:00,
2013-11-20 02:17:00,35.2,24.6,30.30,NNW,340,1.0,4.0,65,0.00,,,0.00,meteohub,2013-11-20 07:17:00,
2013-11-20 02:22:00,35.1,24.8,30.31,NNE,32,0.0,4.0,66,0.00,,,0.00,meteohub,2013-11-20 07:22:00,
2013-11-20 02:27:00,34.9,24.6,30.31,NE,36,0.0,4.0,66,0.00,,,0.00,meteohub,2013-11-20 07:27:00,
2013-11-20 02:32:00,34.7,24.4,30.31,NE,36,0.0,2.0,66,0.00,,,0.00,meteohub,2013-11-20 07:32:00,
2013-11-20 02:37:00,34.5,24.6,30.31,NE,38,2.0,4.0,67,0.00,,,0.00,meteohub,2013-11-20 07:37:00,
2013-11-20 02:42:00,34.5,24.6,30.31,NNE,23,0.0,4.0,67,0.00,,,0.00,meteohub,2013-11-20 07:42:00,
2013-11-20 02:47:00,34.3,24.8,30.31,NNE,29,1.0,3.0,68,0.00,,,0.00,meteohub,2013-11-20 07:47:00,
2013-11-20 02:52:00,34.2,24.6,30.31,East,79,0.0,3.0,68,0.00,,,0.00,meteohub,2013-11-20 07:52:00,
2013-11-20 02:57:00,34.0,24.8,30.32,NE,46,0.0,2.0,69,0.00,,,0.00,meteohub,2013-11-20 07:57:00,
2013-11-20 03:02:00,33.6,24.6,30.32,NE,47,0.0,4.0,69,0.00,,,0.00,meteohub,2013-11-20 08:02:00,
2013-11-20 03:07:00,33.3,24.6,30.32,NE,47,0.0,4.0,70,0.00,,,0.00,meteohub,2013-11-20 08:07:00,
2013-11-20 03:12:00,33.1,24.4,30.32,NNE,19,0.0,0.0,70,0.00,,,0.00,meteohub,2013-11-20 08:12:00,
2013-11-20 03:17:00,33.1,24.6,30.32,NE,37,1.0,1.0,71,0.00,,,0.00,meteohub,2013-11-20 08:17:00,
2013-11-20 03:22:00,33.1,24.6,30.32,North,4,0.0,3.0,71,0.00,,,0.00,meteohub,2013-11-20 08:22:00,
2013-11-20 03:27:00,32.9,24.6,30.33,North,4,0.0,3.0,71,0.00,,,0.00,meteohub,2013-11-20 08:27:00,
2013-11-20 03:32:00,32.5,24.3,30.33,North,4,0.0,3.0,71,0.00,,,0.00,meteohub,2013-11-20 08:32:00,
2013-11-20 03:37:00,32.2,24.3,30.33,North,4,0.0,0.0,72,0.00,,,0.00,meteohub,2013-11-20 08:37:00,
2013-11-20 03:42:00,31.6,23.9,30.33,North,4,0.0,0.0,73,0.00,,,0.00,meteohub,2013-11-20 08:42:00,
2013-11-20 03:47:00,31.6,24.3,30.33,NE,53,0.0,2.0,74,0.00,,,0.00,meteohub,2013-11-20 08:47:00,
2013-11-20 03:52:00,31.5,23.9,30.33,NE,53,0.0,2.0,73,0.00,,,0.00,meteohub,2013-11-20 08:52:00,
2013-11-20 03:57:00,31.3,23.9,30.33,NE,52,0.0,2.0,74,0.00,,,0.00,meteohub,2013-11-20 08:57:00,
2013-11-20 04:02:00,31.1,23.7,30.33,NE,53,0.0,0.0,74,0.00,,,0.00,meteohub,2013-11-20 09:02:00,
2013-11-20 04:07:00,30.9,23.9,30.33,NE,53,0.0,0.0,75,0.00,,,0.00,meteohub,2013-11-20 09:07:00,
2013-11-20 04:12:00,30.7,23.7,30.33,ENE,62,0.0,0.0,75,0.00,,,0.00,meteohub,2013-11-20 09:12:00,
2013-11-20 04:17:00,30.9,23.9,30.33,ENE,65,0.0,0.0,75,0.00,,,0.00,meteohub,2013-11-20 09:17:00,
2013-11-20 04:22:00,30.9,23.9,30.34,ENE,67,0.0,0.0,75,0.00,,,0.00,meteohub,2013-11-20 09:22:00,
2013-11-20 04:27:00,30.7,23.7,30.34,ENE,65,0.0,0.0,75,0.00,,,0.00,meteohub,2013-11-20 09:27:00,
2013-11-20 04:32:00,30.6,23.5,30.34,ENE,65,0.0,0.0,75,0.00,,,0.00,meteohub,2013-11-20 09:32:00,
2013-11-20 04:37:00,30.4,23.7,30.34,ENE,65,0.0,0.0,76,0.00,,,0.00,meteohub,2013-11-20 09:37:00,
2013-11-20 04:42:00,30.4,23.7,30.35,ENE,65,0.0,0.0,76,0.00,,,0.00,meteohub,2013-11-20 09:42:00,
2013-11-20 04:47:00,30.0,23.7,30.35,ENE,65,0.0,0.0,77,0.00,,,0.00,meteohub,2013-11-20 09:47:00,
2013-11-20 04:52:00,30.0,23.7,30.35,ENE,65,0.0,0.0,77,0.00,,,0.00,meteohub,2013-11-20 09:52:00,
2013-11-20 04:57:00,29.7,23.4,30.35,ENE,65,0.0,0.0,77,0.00,,,0.00,meteohub,2013-11-20 09:57:00,
2013-11-20 05:02:00,29.5,23.5,30.35,ENE,64,0.0,0.0,78,0.00,,,0.00,meteohub,2013-11-20 10:02:00,
2013-11-20 05:07:00,29.1,23.4,30.35,ENE,63,0.0,0.0,79,0.00,,,0.00,meteohub,2013-11-20 10:07:00,
2013-11-20 05:12:00,29.3,23.5,30.35,NE,38,0.0,0.0,79,0.00,,,0.00,meteohub,2013-11-20 10:12:00,
2013-11-20 05:17:00,29.5,23.7,30.35,NE,39,0.0,1.0,79,0.00,,,0.00,meteohub,2013-11-20 10:17:00,
2013-11-20 05:22:00,29.5,23.5,30.35,NE,40,0.0,1.0,78,0.00,,,0.00,meteohub,2013-11-20 10:22:00,
2013-11-20 05:27:00,29.3,23.5,30.35,NE,40,0.0,1.0,79,0.00,,,0.00,meteohub,2013-11-20 10:27:00,
2013-11-20 05:32:00,28.9,23.5,30.35,NE,38,0.0,0.0,80,0.00,,,0.00,meteohub,2013-11-20 10:32:00,
2013-11-20 05:37:00,28.9,23.5,30.35,NE,38,0.0,0.0,80,0.00,,,0.00,meteohub,2013-11-20 10:37:00,
2013-11-20 05:42:00,28.9,23.5,30.35,NE,38,0.0,0.0,80,0.00,,,0.00,meteohub,2013-11-20 10:42:00,
2013-11-20 05:47:00,28.8,23.4,30.35,NE,39,0.0,0.0,80,0.00,,,0.00,meteohub,2013-11-20 10:47:00,
2013-11-20 05:52:00,28.8,23.7,30.35,NE,38,0.0,0.0,81,0.00,,,0.00,meteohub,2013-11-20 10:52:00,
2013-11-20 05:57:00,28.9,23.9,30.35,ENE,75,0.0,0.0,81,0.00,,,0.00,meteohub,2013-11-20 10:57:00,
2013-11-20 06:02:00,28.9,23.9,30.35,ENE,75,0.0,1.0,81,0.00,,,0.00,meteohub,2013-11-20 11:02:00,
2013-11-20 06:07:00,28.9,23.9,30.36,ESE,109,0.0,1.0,81,0.00,,,0.00,meteohub,2013-11-20 11:07:00,
2013-11-20 06:12:00,28.9,23.9,30.36,ESE,110,0.0,1.0,81,0.00,,,0.00,meteohub,2013-11-20 11:12:00,
2013-11-20 06:17:00,28.9,23.9,30.36,SE,142,1.0,1.0,81,0.00,,,0.00,meteohub,2013-11-20 11:17:00,
2013-11-20 06:22:00,29.1,24.1,30.36,ENE,71,0.0,2.0,81,0.00,,,0.00,meteohub,2013-11-20 11:22:00,
2013-11-20 06:27:00,28.9,23.9,30.36,ENE,71,0.0,2.0,81,0.00,,,0.00,meteohub,2013-11-20 11:27:00,
2013-11-20 06:32:00,28.9,23.9,30.37,ENE,71,0.0,2.0,81,0.00,,,0.00,meteohub,2013-11-20 11:32:00,
2013-11-20 06:37:00,28.9,24.1,30.37,East,100,0.0,1.0,82,0.00,,,0.00,meteohub,2013-11-20 11:37:00,
2013-11-20 06:42:00,28.8,23.9,30.37,East,100,0.0,1.0,82,0.00,,,0.00,meteohub,2013-11-20 11:42:00,
2013-11-20 06:47:00,28.6,23.7,30.38,East,101,0.0,1.0,82,0.00,,,0.00,meteohub,2013-11-20 11:47:00,
2013-11-20 06:52:00,28.4,23.5,30.38,ESE,102,0.0,1.0,82,0.00,,,0.00,meteohub,2013-11-20 11:52:00,
2013-11-20 06:57:00,28.2,23.7,30.38,East,101,0.0,0.0,83,0.00,,,0.00,meteohub,2013-11-20 11:57:00,
2013-11-20 07:02:00,28.2,24.1,30.38,East,92,0.0,0.0,84,0.00,,,0.00,meteohub,2013-11-20 12:02:00,
2013-11-20 07:07:00,28.4,24.3,30.38,NNE,28,0.0,1.0,84,0.00,,,0.00,meteohub,2013-11-20 12:07:00,
2013-11-20 07:12:00,28.6,24.1,30.38,NNE,29,0.0,1.0,83,0.00,,,0.00,meteohub,2013-11-20 12:12:00,
2013-11-20 07:17:00,28.2,23.7,30.39,NNE,32,0.0,1.0,83,0.00,,,0.00,meteohub,2013-11-20 12:17:00,
2013-11-20 07:22:00,28.6,24.4,30.39,NNE,32,0.0,0.0,84,0.00,,,0.00,meteohub,2013-11-20 12:22:00,
2013-11-20 07:27:00,28.6,24.1,30.39,NE,36,0.0,1.0,83,0.00,,,0.00,meteohub,2013-11-20 12:27:00,
2013-11-20 07:32:00,29.1,24.6,30.39,NE,40,1.0,8.0,83,0.00,,,0.00,meteohub,2013-11-20 12:32:00,
2013-11-20 07:37:00,29.5,25.0,30.39,NE,47,0.0,8.0,83,0.00,,,0.00,meteohub,2013-11-20 12:37:00,
2013-11-20 07:42:00,29.7,24.8,30.39,NE,38,0.0,8.0,82,0.00,,,0.00,meteohub,2013-11-20 12:42:00,
2013-11-20 07:47:00,29.7,24.8,30.40,NNE,30,0.0,4.0,82,0.00,,,0.00,meteohub,2013-11-20 12:47:00,
2013-11-20 07:52:00,29.7,24.8,30.40,North,349,0.0,4.0,82,0.00,,,0.00,meteohub,2013-11-20 12:52:00,
2013-11-20 07:57:00,29.7,24.8,30.40,ESE,109,0.0,3.0,82,0.00,,,0.00,meteohub,2013-11-20 12:57:00,
2013-11-20 08:02:00,29.8,25.0,30.40,NE,54,1.0,3.0,82,0.00,,,0.00,meteohub,2013-11-20 13:02:00,
2013-11-20 08:07:00,29.8,25.0,30.40,NE,47,3.0,3.0,82,0.00,,,0.00,meteohub,2013-11-20 13:07:00,
2013-11-20 08:12:00,30.0,25.2,30.41,ENE,63,0.0,5.0,82,0.00,,,0.00,meteohub,2013-11-20 13:12:00,
2013-11-20 08:17:00,30.0,25.2,30.41,NE,46,0.0,5.0,82,0.00,,,0.00,meteohub,2013-11-20 13:17:00,
2013-11-20 08:22:00,30.4,25.3,30.42,ENE,63,3.0,5.0,81,0.00,,,0.00,meteohub,2013-11-20 13:22:00,
2013-11-20 08:27:00,30.6,25.2,30.42,ENE,61,2.0,5.0,80,0.00,,,0.00,meteohub,2013-11-20 13:27:00,
2013-11-20 08:32:00,30.9,25.5,30.42,East,83,6.0,7.0,80,0.00,,,0.00,meteohub,2013-11-20 13:32:00,
2013-11-20 08:37:00,31.3,25.5,30.41,North,1,2.0,12.0,79,0.00,,,0.00,meteohub,2013-11-20 13:37:00,
2013-11-20 08:42:00,31.5,25.3,30.42,ENE,73,4.0,12.0,78,0.00,,,0.00,meteohub,2013-11-20 13:42:00,
2013-11-20 08:47:00,31.6,25.5,30.42,ENE,61,4.0,15.0,78,0.00,,,0.00,meteohub,2013-11-20 13:47:00,
2013-11-20 08:52:00,32.0,25.9,30.42,NE,36,8.0,15.0,78,0.00,,,0.00,meteohub,2013-11-20 13:52:00,
2013-11-20 08:57:00,32.0,25.7,30.42,NNE,27,4.0,11.0,77,0.00,,,0.00,meteohub,2013-11-20 13:57:00,
2013-11-20 09:02:00,32.2,25.7,30.42,NNE,32,8.0,11.0,77,0.00,,,0.00,meteohub,2013-11-20 14:02:00,
2013-11-20 09:07:00,32.2,25.7,30.42,NE,55,6.0,11.0,77,0.00,,,0.00,meteohub,2013-11-20 14:07:00,
2013-11-20 09:12:00,32.4,25.9,30.42,NE,54,6.0,14.0,77,0.00,,,0.00,meteohub,2013-11-20 14:12:00,
2013-11-20 09:17:00,32.5,25.9,30.42,NNE,25,4.0,14.0,76,0.00,,,0.00,meteohub,2013-11-20 14:17:00,
2013-11-20 09:22:00,32.7,25.7,30.43,NNE,20,8.0,13.0,75,0.00,,,0.00,meteohub,2013-11-20 14:22:00,
2013-11-20 09:27:00,32.9,25.9,30.43,NE,42,8.0,13.0,75,0.00,,,0.00,meteohub,2013-11-20 14:27:00,
2013-11-20 09:32:00,33.1,26.1,30.43,NNE,23,3.0,13.0,75,0.00,,,0.00,meteohub,2013-11-20 14:32:00,
2013-11-20 09:37:00,33.4,26.1,30.43,North,11,5.0,12.0,74,0.00,,,0.00,meteohub,2013-11-20 14:37:00,
2013-11-20 09:42:00,33.6,26.2,30.42,NE,36,9.0,12.0,74,0.00,,,0.00,meteohub,2013-11-20 14:42:00,
2013-11-20 09:47:00,34.0,26.2,30.43,NNW,340,2.0,12.0,73,0.00,,,0.00,meteohub,2013-11-20 14:47:00,
2013-11-20 09:52:00,34.0,26.2,30.43,NNE,30,5.0,12.0,73,0.00,,,0.00,meteohub,2013-11-20 14:52:00,
2013-11-20 09:57:00,34.2,26.1,30.43,NE,49,11.0,11.0,72,0.00,,,0.00,meteohub,2013-11-20 14:57:00,
2013-11-20 10:02:00,34.2,26.1,30.43,NNE,19,6.0,13.0,72,0.00,,,0.00,meteohub,2013-11-20 15:02:00,
2013-11-20 10:07:00,34.5,26.1,30.43,NE,48,7.0,13.0,71,0.00,,,0.00,meteohub,2013-11-20 15:07:00,
2013-11-20 10:12:00,34.9,26.4,30.43,East,81,9.0,13.0,71,0.00,,,0.00,meteohub,2013-11-20 15:12:00,
2013-11-20 10:17:00,35.1,26.2,30.43,NNE,27,9.0,12.0,70,0.00,,,0.00,meteohub,2013-11-20 15:17:00,
2013-11-20 10:22:00,35.2,26.1,30.43,NE,46,3.0,13.0,69,0.00,,,0.00,meteohub,2013-11-20 15:22:00,
2013-11-20 10:27:00,35.4,25.9,30.43,ENE,67,5.0,15.0,68,0.00,,,0.00,meteohub,2013-11-20 15:27:00,
2013-11-20 10:32:00,36.0,26.4,30.43,NNE,33,3.0,15.0,68,0.00,,,0.00,meteohub,2013-11-20 15:32:00,
2013-11-20 10:37:00,36.3,26.1,30.43,NNW,327,2.0,15.0,66,0.00,,,0.00,meteohub,2013-11-20 15:37:00,
2013-11-20 10:42:00,36.3,26.1,30.43,NE,36,3.0,13.0,66,0.00,,,0.00,meteohub,2013-11-20 15:42:00,
2013-11-20 10:47:00,36.5,26.2,30.43,North,349,3.0,13.0,66,0.00,,,0.00,meteohub,2013-11-20 15:47:00,
2013-11-20 10:52:00,36.9,26.6,30.43,East,101,1.0,12.0,66,0.00,,,0.00,meteohub,2013-11-20 15:52:00,
2013-11-20 10:57:00,37.2,26.6,30.43,NNE,30,2.0,11.0,65,0.00,,,0.00,meteohub,2013-11-20 15:57:00,
2013-11-20 11:02:00,37.2,26.6,30.43,NE,42,8.0,10.0,65,0.00,,,0.00,meteohub,2013-11-20 16:02:00,
2013-11-20 11:07:00,37.6,26.6,30.43,ENE,64,5.0,10.0,64,0.00,,,0.00,meteohub,2013-11-20 16:07:00,
2013-11-20 11:12:00,37.8,26.2,30.42,North,8,5.0,10.0,63,0.00,,,0.00,meteohub,2013-11-20 16:12:00,
2013-11-20 11:17:00,37.9,26.4,30.42,NNE,14,3.0,13.0,63,0.00,,,0.00,meteohub,2013-11-20 16:17:00,
2013-11-20 11:22:00,38.5,27.0,30.42,NNE,24,10.0,13.0,63,0.00,,,0.00,meteohub,2013-11-20 16:22:00,
2013-11-20 11:27:00,39.0,27.1,30.41,ENE,68,2.0,13.0,62,0.00,,,0.00,meteohub,2013-11-20 16:27:00,
2013-11-20 11:32:00,39.0,26.8,30.41,NNE,30,4.0,11.0,61,0.00,,,0.00,meteohub,2013-11-20 16:32:00,
2013-11-20 11:37:00,39.0,26.2,30.41,NE,36,9.0,12.0,60,0.00,,,0.00,meteohub,2013-11-20 16:37:00,
2013-11-20 11:42:00,39.0,26.2,30.40,NE,49,5.0,12.0,60,0.00,,,0.00,meteohub,2013-11-20 16:42:00,
2013-11-20 11:47:00,39.4,26.6,30.40,NNE,19,1.0,12.0,60,0.00,,,0.00,meteohub,2013-11-20 16:47:00,
2013-11-20 11:52:00,39.7,27.0,30.40,East,98,0.0,11.0,60,0.00,,,0.00,meteohub,2013-11-20 16:52:00,
2013-11-20 11:57:00,40.6,27.5,30.40,ENE,60,6.0,9.0,59,0.00,,,0.00,meteohub,2013-11-20 16:57:00,
2013-11-20 12:02:00,40.6,27.0,30.39,North,356,0.0,7.0,58,0.00,,,0.00,meteohub,2013-11-20 17:02:00,
2013-11-20 12:07:00,41.0,27.3,30.39,NE,35,2.0,8.0,58,0.00,,,0.00,meteohub,2013-11-20 17:07:00,
2013-11-20 12:12:00,41.2,27.1,30.39,WNW,287,0.0,8.0,57,0.00,,,0.00,meteohub,2013-11-20 17:12:00,
2013-11-20 12:17:00,41.7,27.1,30.39,SE,142,0.0,8.0,56,0.00,,,0.00,meteohub,2013-11-20 17:17:00,
2013-11-20 12:22:00,42.4,27.0,30.39,NNE,32,4.0,8.0,54,0.00,,,0.00,meteohub,2013-11-20 17:22:00,
2013-11-20 12:27:00,43.0,27.5,30.39,ENE,65,1.0,7.0,54,0.00,,,0.00,meteohub,2013-11-20 17:27:00,
2013-11-20 12:32:00,42.6,26.2,30.39,NE,35,4.0,5.0,52,0.00,,,0.00,meteohub,2013-11-20 17:32:00,
2013-11-20 12:37:00,42.4,26.1,30.39,NE,34,7.0,8.0,52,0.00,,,0.00,meteohub,2013-11-20 17:37:00,
2013-11-20 12:42:00,42.4,25.5,30.38,NE,36,3.0,9.0,51,0.00,,,0.00,meteohub,2013-11-20 17:42:00,
2013-11-20 12:47:00,42.3,25.3,30.38,North,4,3.0,9.0,51,0.00,,,0.00,meteohub,2013-11-20 17:47:00,
2013-11-20 12:52:00,42.6,25.7,30.38,NE,49,7.0,9.0,51,0.00,,,0.00,meteohub,2013-11-20 17:52:00,
2013-11-20 12:57:00,42.6,24.8,30.38,NE,47,5.0,9.0,49,0.00,,,0.00,meteohub,2013-11-20 17:57:00,
2013-11-20 13:02:00,42.8,25.5,30.38,NE,50,2.0,9.0,50,0.00,,,0.00,meteohub,2013-11-20 18:02:00,
2013-11-20 13:07:00,43.3,25.0,30.38,SSW,203,0.0,9.0,48,0.00,,,0.00,meteohub,2013-11-20 18:07:00,
2013-11-20 13:12:00,43.5,25.2,30.38,NE,53,5.0,9.0,48,0.00,,,0.00,meteohub,2013-11-20 18:12:00,
2013-11-20 13:17:00,43.3,25.5,30.38,ENE,76,2.0,7.0,49,0.00,,,0.00,meteohub,2013-11-20 18:17:00,
2013-11-20 13:22:00,43.0,25.2,30.38,NE,50,2.0,8.0,49,0.00,,,0.00,meteohub,2013-11-20 18:22:00,
2013-11-20 13:27:00,43.0,25.7,30.38,ESE,102,3.0,8.0,50,0.00,,,0.00,meteohub,2013-11-20 18:27:00,
2013-11-20 13:32:00,43.0,25.7,30.37,ENE,58,2.0,8.0,50,0.00,,,0.00,meteohub,2013-11-20 18:32:00,
2013-11-20 13:37:00,43.2,26.2,30.37,ENE,61,0.0,8.0,51,0.00,,,0.00,meteohub,2013-11-20 18:37:00,
2013-11-20 13:42:00,43.7,27.7,30.37,NNE,13,1.0,8.0,53,0.00,,,0.00,meteohub,2013-11-20 18:42:00,
2013-11-20 13:47:00,44.1,26.6,30.37,NNW,344,3.0,7.0,50,0.00,,,0.00,meteohub,2013-11-20 18:47:00,
2013-11-20 13:52:00,44.1,26.6,30.37,ESE,106,1.0,8.0,50,0.00,,,0.00,meteohub,2013-11-20 18:52:00,
2013-11-20 13:57:00,44.1,25.7,30.37,ENE,63,0.0,8.0,48,0.00,,,0.00,meteohub,2013-11-20 18:57:00,
2013-11-20 14:02:00,44.4,26.4,30.37,NNE,30,2.0,8.0,49,0.00,,,0.00,meteohub,2013-11-20 19:02:00,
2013-11-20 14:07:00,44.4,25.5,30.37,ESE,122,3.0,7.0,47,0.00,,,0.00,meteohub,2013-11-20 19:07:00,
2013-11-20 14:12:00,44.8,24.8,30.37,North,355,2.0,7.0,45,0.00,,,0.00,meteohub,2013-11-20 19:12:00,
2013-11-20 14:17:00,44.4,25.0,30.37,NE,51,5.0,8.0,46,0.00,,,0.00,meteohub,2013-11-20 19:17:00,
2013-11-20 14:22:00,44.4,25.0,30.37,ENE,64,4.0,8.0,46,0.00,,,0.00,meteohub,2013-11-20 19:22:00,
2013-11-20 14:27:00,44.4,25.0,30.36,ENE,58,5.0,8.0,46,0.00,,,0.00,meteohub,2013-11-20 19:27:00,
2013-11-20 14:32:00,44.6,24.6,30.37,ENE,68,1.0,7.0,45,0.00,,,0.00,meteohub,2013-11-20 19:32:00,
2013-11-20 14:37:00,45.0,24.4,30.36,East,101,0.0,7.0,44,0.00,,,0.00,meteohub,2013-11-20 19:37:00,
2013-11-20 14:42:00,45.3,24.1,30.36,SSW,212,0.0,7.0,43,0.00,,,0.00,meteohub,2013-11-20 19:42:00,
2013-11-20 14:47:00,45.3,24.1,30.36,ENE,63,7.0,7.0,43,0.00,,,0.00,meteohub,2013-11-20 19:47:00,
2013-11-20 14:52:00,45.1,23.4,30.36,NE,49,3.0,8.0,42,0.00,,,0.00,meteohub,2013-11-20 19:52:00,
2013-11-20 14:57:00,45.1,23.4,30.36,NNE,33,4.0,8.0,42,0.00,,,0.00,meteohub,2013-11-20 19:57:00,
2013-11-20 15:02:00,45.1,23.9,30.36,ENE,67,0.0,8.0,43,0.00,,,0.00,meteohub,2013-11-20 20:02:00,
2013-11-20 15:07:00,45.1,23.4,30.36,NNE,13,4.0,7.0,42,0.00,,,0.00,meteohub,2013-11-20 20:07:00,
2013-11-20 15:12:00,45.3,23.0,30.36,NE,46,0.0,7.0,41,0.00,,,0.00,meteohub,2013-11-20 20:12:00,
2013-11-20 15:17:00,45.3,23.0,30.36,East,89,2.0,5.0,41,0.00,,,0.00,meteohub,2013-11-20 20:17:00,
2013-11-20 15:22:00,45.5,23.7,30.36,North,4,2.0,8.0,42,0.00,,,0.00,meteohub,2013-11-20 20:22:00,
2013-11-20 15:27:00,45.3,23.5,30.36,NNE,14,3.0,8.0,42,0.00,,,0.00,meteohub,2013-11-20 20:27:00,
2013-11-20 15:32:00,45.7,23.9,30.36,NE,37,6.0,8.0,42,0.00,,,0.00,meteohub,2013-11-20 20:32:00,
2013-11-20 15:37:00,45.5,23.7,30.36,NE,44,4.0,7.0,42,0.00,,,0.00,meteohub,2013-11-20 20:37:00,
2013-11-20 15:42:00,45.3,23.5,30.36,NE,40,3.0,7.0,42,0.00,,,0.00,meteohub,2013-11-20 20:42:00,
2013-11-20 15:47:00,45.3,23.5,30.36,NNE,33,2.0,7.0,42,0.00,,,0.00,meteohub,2013-11-20 20:47:00,
2013-11-20 15:52:00,45.1,23.9,30.36,East,98,1.0,6.0,43,0.00,,,0.00,meteohub,2013-11-20 20:52:00,
2013-11-20 15:57:00,45.1,23.9,30.36,NNE,32,1.0,6.0,43,0.00,,,0.00,meteohub,2013-11-20 20:57:00,
2013-11-20 16:02:00,45.0,24.4,30.36,ENE,61,2.0,6.0,44,0.00,,,0.00,meteohub,2013-11-20 21:02:00,
2013-11-20 16:07:00,45.0,25.0,30.36,NNE,30,2.0,6.0,45,0.00,,,0.00,meteohub,2013-11-20 21:07:00,
2013-11-20 16:12:00,44.8,25.3,30.36,North,6,4.0,6.0,46,0.00,,,0.00,meteohub,2013-11-20 21:12:00,
2013-11-20 16:17:00,44.6,25.2,30.37,North,4,0.0,5.0,46,0.00,,,0.00,meteohub,2013-11-20 21:17:00,
2013-11-20 16:22:00,44.4,25.5,30.37,NNE,33,4.0,6.0,47,0.00,,,0.00,meteohub,2013-11-20 21:22:00,
2013-11-20 16:27:00,44.1,25.7,30.37,NNE,16,2.0,6.0,48,0.00,,,0.00,meteohub,2013-11-20 21:27:00,
2013-11-20 16:32:00,43.5,25.2,30.37,ESE,103,1.0,7.0,48,0.00,,,0.00,meteohub,2013-11-20 21:32:00,
2013-11-20 16:37:00,43.5,25.7,30.37,ENE,68,1.0,7.0,49,0.00,,,0.00,meteohub,2013-11-20 21:37:00,
2013-11-20 16:42:00,43.2,25.7,30.37,NE,47,1.0,7.0,50,0.00,,,0.00,meteohub,2013-11-20 21:42:00,
2013-11-20 16:47:00,43.0,26.1,30.37,NE,41,0.0,6.0,51,0.00,,,0.00,meteohub,2013-11-20 21:47:00,
2013-11-20 16:52:00,42.6,25.7,30.37,East,99,0.0,6.0,51,0.00,,,0.00,meteohub,2013-11-20 21:52:00,
2013-11-20 16:57:00,42.3,25.9,30.37,NE,53,2.0,4.0,52,0.00,,,0.00,meteohub,2013-11-20 21:57:00,
2013-11-20 17:02:00,41.7,25.9,30.38,NNE,18,0.0,3.0,53,0.00,,,0.00,meteohub,2013-11-20 22:02:00,
2013-11-20 17:07:00,41.4,25.9,30.38,North,350,0.0,4.0,54,0.00,,,0.00,meteohub,2013-11-20 22:07:00,
2013-11-20 17:12:00,40.8,25.9,30.38,NW,324,0.0,4.0,55,0.00,,,0.00,meteohub,2013-11-20 22:12:00,
2013-11-20 17:17:00,40.5,26.1,30.39,North,358,2.0,4.0,56,0.00,,,0.00,meteohub,2013-11-20 22:17:00,
2013-11-20 17:22:00,40.3,26.2,30.39,NNE,25,0.0,3.0,57,0.00,,,0.00,meteohub,2013-11-20 22:22:00,
2013-11-20 17:27:00,39.9,25.9,30.39,NNW,344,0.0,3.0,57,0.00,,,0.00,meteohub,2013-11-20 22:27:00,
2013-11-20 17:32:00,39.7,26.2,30.40,North,354,0.0,3.0,58,0.00,,,0.00,meteohub,2013-11-20 22:32:00,
2013-11-20 17:37:00,39.7,26.6,30.40,North,11,0.0,1.0,59,0.00,,,0.00,meteohub,2013-11-20 22:37:00,
2013-11-20 17:42:00,39.7,26.6,30.40,NNE,26,2.0,2.0,59,0.00,,,0.00,meteohub,2013-11-20 22:42:00,
2013-11-20 17:47:00,39.9,27.1,30.40,NNE,13,2.0,3.0,60,0.00,,,0.00,meteohub,2013-11-20 22:47:00,
2013-11-20 17:52:00,39.9,26.8,30.40,NNE,27,0.0,4.0,59,0.00,,,0.00,meteohub,2013-11-20 22:52:00,
2013-11-20 17:57:00,39.7,27.0,30.40,North,353,0.0,4.0,60,0.00,,,0.00,meteohub,2013-11-20 22:57:00,
2013-11-20 18:02:00,39.6,27.1,30.41,North,1,2.0,4.0,61,0.00,,,0.00,meteohub,2013-11-20 23:02:00,
2013-11-20 18:07:00,39.4,27.1,30.40,NE,43,0.0,2.0,61,0.00,,,0.00,meteohub,2013-11-20 23:07:00,
2013-11-20 18:12:00,39.2,27.0,30.40,NE,39,0.0,3.0,61,0.00,,,0.00,meteohub,2013-11-20 23:12:00,
2013-11-20 18:17:00,39.0,26.8,30.41,NE,44,0.0,3.0,61,0.00,,,0.00,meteohub,2013-11-20 23:17:00,
2013-11-20 18:22:00,38.8,26.6,30.42,ENE,68,0.0,3.0,61,0.00,,,0.00,meteohub,2013-11-20 23:22:00,
2013-11-20 18:27:00,38.7,26.8,30.43,SSE,159,0.0,2.0,62,0.00,,,0.00,meteohub,2013-11-20 23:27:00,
2013-11-20 18:32:00,38.5,26.6,30.42,NNE,30,3.0,3.0,62,0.00,,,0.00,meteohub,2013-11-20 23:32:00,
2013-11-20 18:37:00,38.3,26.4,30.43,NE,42,0.0,5.0,62,0.00,,,0.00,meteohub,2013-11-20 23:37:00,
2013-11-20 18:42:00,38.1,26.6,30.42,North,354,1.0,5.0,63,0.00,,,0.00,meteohub,2013-11-20 23:42:00,
2013-11-20 18:47:00,37.8,26.6,30.42,NE,44,0.0,5.0,64,0.00,,,0.00,meteohub,2013-11-20 23:47:00,
2013-11-20 18:52:00,37.6,26.6,30.42,NE,38,1.0,3.0,64,0.00,,,0.00,meteohub,2013-11-20 23:52:00,
2013-11-20 18:57:00,37.8,26.6,30.42,ENE,60,0.0,4.0,64,0.00,,,0.00,meteohub,2013-11-20 23:57:00,
2013-11-20 19:02:00,37.6,27.0,30.43,ENE,60,0.0,4.0,65,0.00,,,0.00,meteohub,2013-11-21 00:02:00,
2013-11-20 19:07:00,37.4,26.8,30.43,NNE,30,2.0,4.0,65,0.00,,,0.00,meteohub,2013-11-21 00:07:00,
2013-11-20 19:12:00,37.2,27.0,30.43,NNE,30,1.0,3.0,66,0.00,,,0.00,meteohub,2013-11-21 00:12:00,
2013-11-20 19:17:00,37.0,26.4,30.43,ENE,70,0.0,3.0,65,0.00,,,0.00,meteohub,2013-11-21 00:17:00,
2013-11-20 19:22:00,37.2,26.6,30.43,NNE,15,0.0,3.0,65,0.00,,,0.00,meteohub,2013-11-21 00:22:00,
2013-11-20 19:27:00,37.2,27.0,30.44,NNE,12,0.0,1.0,66,0.00,,,0.00,meteohub,2013-11-21 00:27:00,
2013-11-20 19:32:00,37.2,27.3,30.43,NNE,33,1.0,1.0,67,0.00,,,0.00,meteohub,2013-11-21 00:32:00,
2013-11-20 19:37:00,37.2,27.0,30.43,NE,36,3.0,3.0,66,0.00,,,0.00,meteohub,2013-11-21 00:37:00,
2013-11-20 19:42:00,37.0,26.8,30.43,NE,43,0.0,4.0,66,0.00,,,0.00,meteohub,2013-11-21 00:42:00,
2013-11-20 19:47:00,36.9,27.0,30.44,WSW,250,0.0,4.0,67,0.00,,,0.00,meteohub,2013-11-21 00:47:00,
2013-11-20 19:52:00,36.9,27.0,30.44,NNE,31,0.0,4.0,67,0.00,,,0.00,meteohub,2013-11-21 00:52:00,
2013-11-20 19:57:00,36.9,27.0,30.44,NNE,23,0.0,2.0,67,0.00,,,0.00,meteohub,2013-11-21 00:57:00,
2013-11-20 20:02:00,36.9,27.0,30.45,NNE,25,0.0,2.0,67,0.00,,,0.00,meteohub,2013-11-21 01:02:00,
2013-11-20 20:07:00,36.7,26.8,30.46,NNW,331,0.0,2.0,67,0.00,,,0.00,meteohub,2013-11-21 01:07:00,
2013-11-20 20:12:00,36.7,27.1,30.45,NNE,19,0.0,1.0,68,0.00,,,0.00,meteohub,2013-11-21 01:12:00,
2013-11-20 20:17:00,36.5,27.0,30.46,NNE,26,0.0,0.0,68,0.00,,,0.00,meteohub,2013-11-21 01:17:00,
2013-11-20 20:22:00,36.5,27.3,30.47,NNE,16,0.0,1.0,69,0.00,,,0.00,meteohub,2013-11-21 01:22:00,
2013-11-20 20:27:00,36.1,27.0,30.47,NNE,25,0.0,1.0,69,0.00,,,0.00,meteohub,2013-11-21 01:27:00,
2013-11-20 20:32:00,36.1,27.0,30.46,ENE,75,0.0,1.0,69,0.00,,,0.00,meteohub,2013-11-21 01:32:00,
2013-11-20 20:37:00,36.1,27.0,30.47,NNW,335,0.0,3.0,69,0.00,,,0.00,meteohub,2013-11-21 01:37:00,
2013-11-20 20:42:00,36.1,27.0,30.47,North,5,0.0,3.0,69,0.00,,,0.00,meteohub,2013-11-21 01:42:00,
2013-11-20 20:47:00,36.3,27.5,30.47,NE,38,1.0,1.0,70,0.00,,,0.00,meteohub,2013-11-21 01:47:00,
2013-11-20 20:52:00,36.3,27.5,30.47,North,5,0.0,3.0,70,0.00,,,0.00,meteohub,2013-11-21 01:52:00,
2013-11-20 20:57:00,36.7,27.9,30.46,NNE,25,4.0,4.0,70,0.00,,,0.00,meteohub,2013-11-21 01:57:00,
2013-11-20 21:02:00,36.7,27.9,30.46,NNE,23,4.0,5.0,70,0.00,,,0.00,meteohub,2013-11-21 02:02:00,
2013-11-20 21:07:00,36.9,28.4,30.47,East,101,0.0,8.0,71,0.00,,,0.00,meteohub,2013-11-21 02:07:00,
2013-11-20 21:12:00,37.0,28.6,30.48,WSW,250,0.0,8.0,71,0.00,,,0.00,meteohub,2013-11-21 02:12:00,
2013-11-20 21:17:00,37.2,28.8,30.48,North,351,0.0,8.0,71,0.00,,,0.00,meteohub,2013-11-21 02:17:00,
2013-11-20 21:22:00,37.2,28.4,30.48,NNE,23,0.0,4.0,70,0.00,,,0.00,meteohub,2013-11-21 02:22:00,
2013-11-20 21:27:00,37.6,28.8,30.48,NE,44,1.0,4.0,70,0.00,,,0.00,meteohub,2013-11-21 02:27:00,
2013-11-20 21:32:00,37.6,28.8,30.48,NE,46,0.0,4.0,70,0.00,,,0.00,meteohub,2013-11-21 02:32:00,
2013-11-20 21:37:00,37.8,28.9,30.48,NE,53,1.0,3.0,70,0.00,,,0.00,meteohub,2013-11-21 02:37:00,
2013-11-20 21:42:00,37.8,28.9,30.49,NNE,15,0.0,3.0,70,0.00,,,0.00,meteohub,2013-11-21 02:42:00,
2013-11-20 21:47:00,37.8,28.9,30.48,NE,39,1.0,3.0,70,0.00,,,0.00,meteohub,2013-11-21 02:47:00,
2013-11-20 21:52:00,37.9,29.1,30.48,ENE,62,3.0,3.0,70,0.00,,,0.00,meteohub,2013-11-21 02:52:00,
2013-11-20 21:57:00,37.9,29.3,30.48,NNE,23,3.0,5.0,71,0.00,,,0.00,meteohub,2013-11-21 02:57:00,
2013-11-20 22:02:00,37.8,29.1,30.48,NE,49,0.0,5.0,71,0.00,,,0.00,meteohub,2013-11-21 03:02:00,
2013-11-20 22:07:00,37.8,29.1,30.49,ENE,57,1.0,5.0,71,0.00,,,0.00,meteohub,2013-11-21 03:07:00,
2013-11-20 22:12:00,37.9,29.3,30.49,NE,36,2.0,5.0,71,0.00,,,0.00,meteohub,2013-11-21 03:12:00,
2013-11-20 22:17:00,37.9,29.3,30.49,NE,44,1.0,3.0,71,0.00,,,0.00,meteohub,2013-11-21 03:17:00,
2013-11-20 22:22:00,37.9,29.3,30.49,North,3,0.0,3.0,71,0.00,,,0.00,meteohub,2013-11-21 03:22:00,
2013-11-20 22:27:00,37.9,29.7,30.49,NE,36,0.0,3.0,72,0.00,,,0.00,meteohub,2013-11-21 03:27:00,
2013-11-20 22:32:00,38.1,29.5,30.48,NE,49,3.0,3.0,71,0.00,,,0.00,meteohub,2013-11-21 03:32:00,
2013-11-20 22:37:00,38.1,29.5,30.48,NNE,16,3.0,5.0,71,0.00,,,0.00,meteohub,2013-11-21 03:37:00,
2013-11-20 22:42:00,38.1,29.5,30.49,ENE,75,2.0,5.0,71,0.00,,,0.00,meteohub,2013-11-21 03:42:00,
2013-11-20 22:47:00,38.1,29.5,30.49,NE,49,1.0,5.0,71,0.00,,,0.00,meteohub,2013-11-21 03:47:00,
2013-11-20 22:52:00,38.1,29.5,30.49,ENE,58,0.0,5.0,71,0.00,,,0.00,meteohub,2013-11-21 03:52:00,
2013-11-20 22:57:00,38.1,29.5,30.49,East,79,0.0,4.0,71,0.00,,,0.00,meteohub,2013-11-21 03:57:00,
2013-11-20 23:02:00,38.1,29.5,30.48,NNE,20,2.0,4.0,71,0.00,,,0.00,meteohub,2013-11-21 04:02:00,
2013-11-20 23:07:00,38.1,29.8,30.49,NE,37,0.0,5.0,72,0.00,,,0.00,meteohub,2013-11-21 04:07:00,
2013-11-20 23:12:00,37.9,29.7,30.49,NNE,28,2.0,5.0,72,0.00,,,0.00,meteohub,2013-11-21 04:12:00,
2013-11-20 23:17:00,37.9,29.7,30.49,NE,53,2.0,5.0,72,0.00,,,0.00,meteohub,2013-11-21 04:17:00,
2013-11-20 23:22:00,37.9,29.7,30.49,NNE,19,1.0,5.0,72,0.00,,,0.00,meteohub,2013-11-21 04:22:00,
2013-11-20 23:27:00,37.9,29.7,30.49,NE,36,0.0,5.0,72,0.00,,,0.00,meteohub,2013-11-21 04:27:00,
2013-11-20 23:32:00,37.9,29.7,30.49,NNE,26,0.0,5.0,72,0.00,,,0.00,meteohub,2013-11-21 04:32:00,
2013-11-20 23:37:00,37.9,29.7,30.49,NE,36,2.0,5.0,72,0.00,,,0.00,meteohub,2013-11-21 04:37:00,
2013-11-20 23:42:00,37.9,29.7,30.49,ENE,68,2.0,5.0,72,0.00,,,0.00,meteohub,2013-11-21 04:42:00,
2013-11-20 23:47:00,37.9,29.7,30.49,NNE,13,0.0,5.0,72,0.00,,,0.00,meteohub,2013-11-21 04:47:00,
2013-11-20 23:52:00,37.9,29.7,30.49,NNE,27,0.0,5.0,72,0.00,,,0.00,meteohub,2013-11-21 04:52:00,
2013-11-20 23:57:00,37.9,29.7,30.50,NE,39,2.0,3.0,72,0.00,,,0.00,meteohub,2013-11-21 04:57:00,